Fayetteville, AR

7:58 AM CST on February 25, 2018 (GMT -0600)
Drake

Weather History for KFYV - March, 2014

Change the Weather History Date:

Sunday, March 23, 2014

  Actual Average Record
Temperature  
Mean Temperature 40 °F 50 °F  
Max Temperature 50 °F 62 °F 79 °F (1975)
Min Temperature 29 °F 38 °F 19 °F (1974)
Degree Days  
Heating Degree Days 25 15  
Month to date heating degree days 507 416  
Since 1 July heating degree days 4227 3719  
Cooling Degree Days 0 0  
Month to date cooling degree days 0 0  
Year to date cooling degree days 0 0  
Moisture  
Dew Point 24 °F    
Average Humidity 62    
Maximum Humidity 85    
Minimum Humidity 39    
Precipitation  
Precipitation T in 0.12 in 1.31 in (1958)
Month to date precipitation 4.36 2.85  
Year to date precipitation 6.84 8.50  
Sea Level Pressure  
Sea Level Pressure 30.33 in    
Wind  
Wind Speed 6 mph (NNE)    
Max Wind Speed 14 mph    
Max Gust Speed 20 mph    
Visibility 10 miles    
Events Rain    
T = Trace of Precipitation, MM = Missing Value Source: NWS Daily Summary

Daily Weather History Graph

Daily Weather History Graph

Search for Another Location

Airport or City:

Trip Planner

Search our weather history database for the weather conditions in past years. The results will help you decide how hot, cold, wet, or windy it might be!

Date:

Astronomy

Mar. 23, 2014 Rise Set
Actual Time 7:15 AM CDT 7:31 PM CDT
Civil Twilight 6:50 AM CDT 7:56 PM CDT
Nautical Twilight 6:20 AM CDT 8:26 PM CDT
Astronomical Twilight 5:49 AM CDT 8:57 PM CDT
Moon 1:39 AM CDT (3/23) 12:06 PM CDT (3/23)
Length of Visible Light 13h 06m
Length of Day
12h 15m
Waning Gibbous, 54% of the Moon is Illuminated
Mar 23
Waning Gibbous
Mar 23
Last Quarter
Mar 30
New
Apr 7
First Quarter
Apr 15
Full

Hourly Weather History & Observations

Time (CDT) Temp. Windchill Dew Point Humidity Pressure Visibility Wind Dir Wind Speed Gust Speed Precip Events Conditions
12:53 AM 39.9 °F 36.7 °F 35.1 °F 83% 30.24 in 10.0 mi NNE 4.6 mph - 0.01 in Rain Light Rain
1:53 AM 41.0 °F 35.2 °F 33.1 °F 73% 30.27 in 10.0 mi North 9.2 mph - 0.00 in   Overcast
2:53 AM 39.0 °F 36.8 °F 33.1 °F 79% 30.28 in 10.0 mi Variable 3.5 mph - 0.00 in   Overcast
3:53 AM 39.0 °F 34.0 °F 25.0 °F 57% 30.30 in 10.0 mi NNE 6.9 mph - 0.00 in   Overcast
4:53 AM 37.0 °F 29.3 °F 21.9 °F 54% 30.32 in 10.0 mi North 11.5 mph 18.4 mph N/A   Overcast
5:53 AM 35.1 °F 29.3 °F 21.0 °F 57% 30.32 in 10.0 mi North 6.9 mph - N/A   Partly Cloudy
6:53 AM 33.1 °F 23.9 °F 19.0 °F 56% 30.36 in 10.0 mi North 12.7 mph 19.6 mph N/A   Clear
7:53 AM 32.0 °F 24.8 °F 19.0 °F 59% 30.38 in 10.0 mi North 8.1 mph - N/A   Clear
8:53 AM 35.1 °F 28.6 °F 19.9 °F 54% 30.39 in 10.0 mi North 8.1 mph - N/A   Clear
9:53 AM 37.0 °F 29.8 °F 18.0 °F 46% 30.41 in 10.0 mi NE 10.4 mph 16.1 mph N/A   Clear
10:53 AM 39.0 °F 32.8 °F 19.9 °F 46% 30.42 in 10.0 mi NE 9.2 mph - N/A   Clear
11:53 AM 41.0 °F 35.2 °F 19.0 °F 41% 30.42 in 10.0 mi North 9.2 mph - N/A   Clear
12:53 PM 44.1 °F 40.1 °F 24.1 °F 45% 30.41 in 10.0 mi NE 6.9 mph - N/A   Clear
1:53 PM 46.0 °F 42.5 °F 26.1 °F 46% 30.38 in 10.0 mi NE 6.9 mph - N/A   Clear
2:53 PM 48.0 °F - 27.0 °F 44% 30.34 in 10.0 mi Variable 6.9 mph - N/A   Clear
3:53 PM 48.9 °F - 27.0 °F 43% 30.31 in 10.0 mi ENE 9.2 mph - N/A   Clear
4:53 PM 50.0 °F - 26.1 °F 39% 30.29 in 10.0 mi North 8.1 mph - N/A   Clear
5:53 PM 48.0 °F - 24.1 °F 39% 30.29 in 10.0 mi NE 6.9 mph - N/A   Clear
6:53 PM 46.9 °F - 24.1 °F 41% 30.29 in 10.0 mi NNE 4.6 mph - N/A   Clear
7:53 PM 43.0 °F 41.3 °F 24.1 °F 47% 30.30 in 10.0 mi NNE 3.5 mph - N/A   Clear
8:53 PM 39.9 °F - 25.0 °F 55% 30.30 in 10.0 mi Calm Calm - N/A   Clear
9:53 PM 37.0 °F - 26.1 °F 65% 30.31 in 10.0 mi Calm Calm - N/A   Clear
10:53 PM 30.9 °F - 26.1 °F 82% 30.30 in 10.0 mi Calm Calm - N/A   Clear
11:53 PM 30.9 °F - 24.1 °F 76% 30.28 in 10.0 mi Calm Calm - N/A   Clear